CZ-4C DEB, 43263

Orbit data source: Space-Track

CZ-4C DEB, 43263 is space debris in SSO originally from a launch on Sat, 31 Mar 2018 UTC launched from the Taiyaun Space Center, China (TSC). Debris objects in space refer to the collection of defunct objects orbiting the Earth. Examples of debris include non-operational satellites, rocket bodies, and fragments generated from explosions, collisions, or faulty payload assembly.

Loading next visibility...
Identifier
43263, 2018-031E
Orbit
SSO
Country
Flag of CNCN / PRC
Related business
Manufacturer
Unknown
Mission
Spacecraft
Bus & Motor
Unknown
Mass
Unknown
Launch date (UTC)
2018-03-31 (8 years ago)
Launch vehicle
Unknown
Launch site
Taiyaun Space Center, China (TSC)
Object type
Payload
Rocket body
Debris
Shape & HBR
Unknown shape, 0.1 m
Radar Cross Section
Small (<0.1 m²)

Expand to show TLE details & history
Last TLE update: 8 hours ago

TLE from 8 hours ago
0 CZ-4C DEB
1 43263U 18031E   26036.49113141  .00004917  00000-0  64784-3 0  9995
2 43263  97.6937  45.7581 0040113  51.4281 309.0514 14.79988152421880
Epoch: 2026-02-05T11:47Z
TLE epoch observation values (Epoch: 2026-02-05T11:47:13.753Z)
Latitude
-0.00007°
Longitude
93.30821°
Altitude
614.744 km
Speed
7.561 km/s
True Right ascension
03h 03m 01s
True Declination
0° 00' 00"
Sunlit
Object was in daylight at epoch
Visualization orbit readout
Latitude
Unknown
Longitude
Unknown
Altitude
Unknown
Speed
Unknown
Apparent Right ascension
Unknown
Apparent Declination
Unknown
Sunlit
N/A
Visualization observer readout
Local Sidereal Time
21:30:50
Azimuth
Unknown
Elevation
Unknown
Doppler factor
Unknown
Orbital elements
Apogee altitude
654.49 km
Perigee altitude
598.296 km
Semi-major axis
7,004.53 km
Eccentricity
0.00401
Inclination
97.6937°
RAAN
45.7581°
Arg. of periapsis
51.4281°
True anomaly
308.69331°
Mean anomaly
309.0514°
Eccentric anomaly
308.87247°
Mean motion
3.70233 °/min
Orbital period
97.24 mins
BSTAR
0.00064784
Loading maneuver chart data...
Computing Atmospheric mass density...
Loading historical data...
Loading historical data...
Loading historical data...
Loading historical data...
Loading historical data...
Loading historical data...
Loading historical data...

Documentation

Showing up to 5 results
|